[[{"header":{"parameterUnit":"m.s-1","parameterCategory":1,"la1":30.2991,"la2":30.254,"lo1":-89.0895,"lo2":-89.0444,"dy":0.0017,"dx":0.0017,"nx":28,"ny":28,"refTime":"2023-07-23T09:00:00:Z","depth":0,"parameterNumber":2,"parameterNumberName":"U-component_of_WINDS"},"data":[0,0,0,0,0,0,0,0,0,0,0,0,0,0,0,0,0,0,0,0,0,0,0,0,0,0,0,0,0,0,0,0,0,0,0,0,0,0,0,0,0,0,0,0,0,0,0,0,0,0,0,0,0,0,0,0,0,0,-0.6416,-0.6415,0,-0.6272,-0.6271,-0.6269,-0.6208,-0.6208,-0.6209,-0.6209,-0.6056,-0.6052,-0.6047,0,0,0,0,0,0,0,0,0,0,0,0,0,-0.6632,-0.6629,-0.6416,-0.6414,-0.6413,-0.6273,-0.6271,-0.6269,-0.6208,-0.6208,-0.6209,-0.6209,-0.6057,-0.6052,-0.6047,0,0,0,0,0,0,0,0,0,0,0,0,0,-0.6519,-0.6628,-0.6416,-0.6366,-0.636,-0.6273,-0.6271,-0.6268,-0.6208,-0.6208,-0.6209,-0.6209,-0.6059,-0.6053,-0.6046,-0.5998,0,0,-0.6026,-0.6024,0,0,0,0,0,0,0,0,-0.6525,-0.6511,-0.6375,-0.6369,-0.6362,-0.6259,-0.6291,-0.6177,-0.6208,-0.6265,-0.6209,-0.6209,-0.6123,-0.6111,-0.6083,-0.5991,-0.5984,-0.6026,-0.6022,-0.6019,-0.6017,0,0,0,0,0,0,0,-0.6533,-0.6516,-0.6359,-0.6373,-0.6365,-0.6348,-0.6332,-0.6269,-0.6193,-0.626,-0.6256,-0.624,-0.6119,-0.6089,-0.6079,-0.5982,-0.6026,-0.602,-0.6016,-0.6014,-0.5841,-0.5841,0,0,0,0,0,0,-0.655,-0.6524,-0.6364,-0.6355,-0.6447,-0.6344,-0.6326,-0.6291,-0.6194,-0.6179,-0.624,-0.6238,-0.61,-0.6086,-0.6073,-0.6009,-0.6019,-0.6013,-0.6009,-0.5842,-0.5841,-0.584,0,0,0,0,0,0,-0.6555,-0.6537,-0.6369,-0.6438,-0.6415,-0.634,-0.6301,-0.6288,-0.6258,-0.6178,-0.6164,-0.6223,-0.61,-0.6082,-0.6017,-0.6003,-0.601,-0.6004,-0.5843,-0.5842,-0.5841,-0.5881,0,0,0,0,0,0,-0.6562,-0.6539,-0.6521,-0.6438,-0.6412,-0.6318,-0.63,-0.6285,-0.6248,-0.6244,-0.6159,-0.6145,-0.6099,-0.6027,-0.6011,-0.5994,-0.5999,-0.5844,-0.5842,-0.5841,-0.5881,-0.5882,-0.5883,0,0,0,0,0,-0.6569,-0.6537,-0.652,-0.6501,-0.6388,-0.6317,-0.6302,-0.6251,-0.6247,-0.6228,-0.6176,-0.6148,-0.6008,-0.6021,-0.6002,-0.5983,-0.5844,-0.5843,-0.5841,-0.5881,-0.5882,-0.5883,0,0,0,0,0,0,-0.6618,-0.6525,-0.6505,-0.6445,-0.639,-0.6307,-0.6281,-0.6254,-0.6197,-0.6195,-0.6132,-0.6113,-0.6053,-0.6012,-0.6028,-0.5931,-0.5924,-0.5918,-0.596,-0.596,-0.5961,-0.5972,-0.5994,0,0,0,0,0,-0.6622,-0.6574,-0.6494,-0.6449,-0.6422,-0.6357,-0.6324,-0.6289,-0.6228,-0.6204,-0.6147,-0.6088,-0.603,-0.5993,-0.5936,-0.5875,-0.5855,-0.5853,-0.5854,-0.5855,-0.585,-0.5814,-0.5812,-0.5835,-0.5835,-0.5836,0,0,-0.6629,-0.6572,-0.6545,-0.6457,-0.641,-0.6359,-0.6337,-0.6285,-0.6246,-0.6195,-0.613,-0.6087,-0.6016,-0.5953,-0.5923,-0.5917,-0.584,-0.5853,-0.5855,-0.5849,-0.5812,-0.581,-0.5808,-0.5834,-0.5835,-0.5835,0,0,-0.6615,-0.6569,-0.6525,-0.6479,-0.6409,-0.6365,-0.6355,-0.6276,-0.6246,-0.6181,-0.6142,-0.6094,-0.5996,-0.5947,-0.5909,-0.5879,-0.585,-0.5861,-0.5865,-0.5831,-0.5829,-0.5827,-0.5814,-0.5811,-0.5858,-0.5858,-0.5858,0,-0.6632,-0.6557,-0.6506,-0.6456,-0.6417,-0.6372,-0.6326,-0.6283,-0.6197,-0.6171,-0.6166,-0.6043,-0.5992,-0.5916,-0.5909,-0.588,-0.5865,-0.587,-0.5834,-0.5831,-0.5828,-0.5815,-0.5811,-0.5859,-0.5859,-0.5859,-0.5859,0,-0.658,-0.6528,-0.6501,-0.6421,-0.638,-0.6333,-0.6273,-0.6237,-0.6207,-0.6164,-0.6097,-0.6035,-0.5963,-0.5943,-0.5912,-0.5863,-0.5861,-0.5846,-0.5837,-0.5829,-0.5815,-0.581,-0.5862,-0.5861,-0.5861,-0.586,0,0,-0.6592,-0.6485,-0.6476,-0.6439,-0.6359,-0.6316,-0.6266,-0.6199,-0.6169,-0.6111,-0.6066,-0.5985,-0.5971,-0.5928,-0.5891,-0.5861,-0.5839,-0.5849,-0.5846,-0.5848,-0.5779,-0.5789,-0.5785,-0.582,-0.5819,-0.5818,-0.5784,0,-0.6566,-0.6477,-0.643,-0.6359,-0.631,-0.6266,-0.6222,-0.6167,-0.6125,-0.6076,-0.6029,-0.5972,-0.5958,-0.5932,-0.59,-0.5848,-0.5824,-0.585,-0.5775,-0.5773,-0.5793,-0.5778,-0.5789,-0.576,-0.5779,-0.5778,-0.5777,0,-0.6524,-0.6469,-0.6395,-0.632,-0.6297,-0.6259,-0.6193,-0.6147,-0.6083,-0.6054,-0.6008,-0.5972,-0.5915,-0.5913,-0.5833,-0.5852,-0.5819,-0.5789,-0.5786,-0.5776,-0.5774,-0.5765,-0.5749,-0.5744,-0.5769,-0.577,-0.577,0,-0.6539,-0.6446,-0.6389,-0.6358,-0.627,-0.6244,-0.6205,-0.6142,-0.6105,-0.6046,-0.6021,-0.5957,-0.5921,-0.5871,-0.5818,-0.5821,-0.5743,-0.5736,-0.5715,-0.5717,-0.5699,-0.5701,-0.5676,-0.5681,-0.5681,-0.5681,-0.5682,0,-0.6514,-0.647,-0.6394,-0.6359,-0.6307,-0.6253,-0.6203,-0.6161,-0.6105,-0.6059,-0.6017,-0.5975,-0.5908,-0.5857,-0.5815,-0.5754,-0.5739,-0.5713,-0.5702,-0.5715,-0.5719,-0.5691,-0.5691,-0.568,-0.568,-0.5681,-0.5681,0,-0.6521,-0.6468,-0.6403,-0.6326,-0.6305,-0.627,-0.6202,-0.6166,-0.6123,-0.6065,-0.6049,-0.598,-0.5918,-0.5861,-0.5777,-0.5749,-0.5687,-0.5674,-0.5709,-0.5702,-0.5685,-0.5687,-0.564,-0.5631,-0.5645,-0.5645,-0.5645,0,-0.6508,-0.6473,-0.6392,-0.6359,-0.6322,-0.627,-0.6232,-0.6178,-0.6139,-0.6064,-0.6036,-0.5971,-0.5916,-0.5818,-0.5759,-0.5695,-0.5678,-0.5667,-0.5668,-0.5683,-0.5676,-0.5678,-0.5673,-0.5667,-0.5667,-0.5667,-0.5667,0,-0.649,-0.6466,-0.6414,-0.6352,-0.6308,-0.6257,-0.6203,-0.6179,-0.6114,-0.6072,-0.6009,-0.5967,-0.5882,-0.5817,-0.5747,-0.5705,-0.5674,-0.5668,-0.5659,-0.5672,-0.5693,-0.5679,-0.5709,-0.5668,-0.5668,-0.5668,-0.5668,-0.5668,-0.6485,-0.6451,-0.639,-0.6332,-0.6287,-0.6239,-0.62,-0.6153,-0.61,-0.6028,-0.5999,-0.5934,-0.587,-0.5773,-0.5731,-0.5678,-0.5672,-0.566,-0.5657,-0.5654,-0.5656,-0.5704,-0.5665,-0.5665,-0.5665,-0.5665,-0.5665,0,-0.6463,-0.6422,-0.637,-0.6298,-0.6252,-0.6231,-0.6171,-0.6134,-0.6078,-0.6022,-0.5969,-0.5896,-0.5833,-0.5771,-0.5704,-0.5673,-0.5658,-0.5657,-0.5658,-0.5648,-0.5666,-0.568,-0.5671,-0.5671,-0.5671,-0.5671,-0.5671,-0.5671,-0.6447,-0.6389,-0.6358,-0.6276,-0.6234,-0.6172,-0.614,-0.6094,-0.6049,-0.597,-0.5918,-0.5879,-0.5819,-0.5748,-0.5688,-0.5671,-0.5648,-0.5651,-0.563,-0.5647,-0.5647,-0.5647,-0.5659,-0.5647,-0.5647,-0.5616,-0.5616,-0.5616]},{"header":{"parameterUnit":"m.s-1","parameterCategory":1,"la1":30.2991,"la2":30.254,"lo1":-89.0895,"lo2":-89.0444,"dy":0.0017,"dx":0.0017,"nx":28,"ny":28,"refTime":"2023-07-23T09:00:00:Z","depth":0,"parameterNumber":3,"parameterNumberName":"V-component_of_WINDS"},"data":[0,0,0,0,0,0,0,0,0,0,0,0,0,0,0,0,0,0,0,0,0,0,0,0,0,0,0,0,0,0,0,0,0,0,0,0,0,0,0,0,0,0,0,0,0,0,0,0,0,0,0,0,0,0,0,0,0,0,2.1521,2.1521,0,2.1483,2.1483,2.1482,2.1497,2.1498,2.1499,2.15,2.1456,2.1454,2.1452,0,0,0,0,0,0,0,0,0,0,0,0,0,2.1601,2.16,2.1521,2.1521,2.152,2.1483,2.1483,2.1482,2.1497,2.1498,2.1499,2.15,2.1457,2.1455,2.1452,0,0,0,0,0,0,0,0,0,0,0,0,0,2.1565,2.1599,2.1521,2.1523,2.1523,2.1484,2.1483,2.1482,2.1497,2.1498,2.1499,2.1501,2.1458,2.1455,2.1452,2.1407,0,0,2.1443,2.1441,0,0,0,0,0,0,0,0,2.1567,2.1562,2.1523,2.1523,2.1523,2.1496,2.1495,2.1457,2.1496,2.1507,2.15,2.1501,2.1468,2.1464,2.1454,2.1405,2.1403,2.1442,2.1441,2.1439,2.1438,0,0,0,0,0,0,0,2.157,2.1564,2.1506,2.1523,2.1522,2.1524,2.1521,2.1488,2.148,2.1506,2.1507,2.1502,2.1468,2.1457,2.1453,2.1402,2.1442,2.144,2.1438,2.1437,2.1313,2.1311,0,0,0,0,0,0,2.1573,2.1566,2.1507,2.1505,2.1549,2.1522,2.1518,2.1503,2.1481,2.1479,2.1501,2.1503,2.1462,2.1457,2.1452,2.1397,2.1439,2.1437,2.1435,2.1314,2.1312,2.1311,0,0,0,0,0,0,2.1575,2.1568,2.1509,2.1536,2.1528,2.1519,2.1503,2.1502,2.1491,2.1477,2.1475,2.1492,2.1462,2.1456,2.1418,2.1395,2.1435,2.1432,2.1316,2.1313,2.1311,2.1286,0,0,0,0,0,0,2.1577,2.1568,2.1552,2.1535,2.1527,2.1477,2.1501,2.15,2.1486,2.1488,2.1468,2.1465,2.1463,2.1422,2.1415,2.1392,2.143,2.1318,2.1315,2.1312,2.1289,2.1283,2.1279,0,0,0,0,0,2.158,2.1545,2.1551,2.1544,2.1507,2.1475,2.147,2.147,2.1484,2.1467,2.1459,2.1466,2.14,2.1418,2.141,2.1386,2.1319,2.1316,2.1312,2.1291,2.1285,2.1279,0,0,0,0,0,0,2.1558,2.1543,2.1549,2.1509,2.1493,2.1478,2.1456,2.1462,2.1441,2.1444,2.1442,2.1437,2.1398,2.1388,2.141,2.1341,2.1361,2.1356,2.1348,2.1342,2.1336,2.1339,2.1428,0,0,0,0,0,2.1549,2.1526,2.1514,2.1479,2.1472,2.1465,2.1452,2.1453,2.1436,2.1429,2.1417,2.1399,2.1374,2.1358,2.1334,2.1288,2.1283,2.1268,2.1262,2.1258,2.1253,2.1227,2.122,2.1299,2.1299,2.1299,0,0,2.1529,2.1518,2.1503,2.1475,2.1463,2.1438,2.146,2.1432,2.1413,2.1424,2.1387,2.1378,2.1358,2.1316,2.1297,2.1307,2.123,2.1254,2.1251,2.1248,2.1223,2.1215,2.1209,2.1297,2.1298,2.1298,0,0,2.1479,2.147,2.144,2.1428,2.141,2.1406,2.1399,2.1383,2.1377,2.1341,2.1349,2.1326,2.1283,2.1268,2.1255,2.12,2.1206,2.1193,2.1165,2.1139,2.1133,2.1127,2.1107,2.1099,2.1188,2.1188,2.1188,0,2.1456,2.142,2.1423,2.1395,2.1381,2.1392,2.1361,2.1349,2.1323,2.1313,2.1325,2.1272,2.1259,2.1213,2.12,2.1189,2.1179,2.1194,2.1134,2.1128,2.1123,2.1103,2.1096,2.1186,2.1187,2.1187,2.1187,0,2.1392,2.1367,2.1345,2.1322,2.1306,2.1276,2.1273,2.1256,2.1259,2.1253,2.1215,2.1201,2.1174,2.1163,2.1165,2.1117,2.1124,2.1135,2.1155,2.1114,2.1095,2.1088,2.1184,2.1185,2.1185,2.1185,0,0,2.1327,2.1306,2.1298,2.1287,2.1269,2.1249,2.1219,2.1195,2.118,2.1162,2.1136,2.11,2.1111,2.1096,2.1096,2.1074,2.103,2.1087,2.1087,2.1076,2.0975,2.0965,2.0957,2.1035,2.1033,2.1032,2.0976,0,2.1275,2.1225,2.1226,2.1178,2.1155,2.1165,2.1139,2.1124,2.1118,2.1096,2.1089,2.1063,2.1079,2.107,2.1049,2.104,2.1009,2.1044,2.1008,2.1007,2.1012,2.0947,2.0937,2.0885,2.0969,2.0968,2.0967,0,2.1207,2.1189,2.114,2.1125,2.1115,2.1091,2.1069,2.1048,2.1031,2.1028,2.1012,2.1015,2.0984,2.1007,2.0962,2.0986,2.0971,2.0965,2.0963,2.0958,2.0983,2.0939,2.0868,2.086,2.0956,2.0956,2.0957,0,2.1163,2.1126,2.1091,2.1082,2.1064,2.1047,2.1039,2.1023,2.1008,2.0988,2.0978,2.0954,2.094,2.0921,2.0917,2.0934,2.0872,2.0895,2.0867,2.0867,2.0852,2.0852,2.0776,2.0845,2.0846,2.0846,2.0846,0,2.1104,2.1073,2.1071,2.1049,2.1014,2.1016,2.0981,2.0974,2.096,2.0936,2.0943,2.092,2.0918,2.0894,2.0891,2.0854,2.0848,2.0843,2.0842,2.0842,2.0842,2.0831,2.0834,2.0844,2.0844,2.0844,2.0845,0,2.1047,2.1045,2.1008,2.0994,2.099,2.0965,2.0953,2.0931,2.0927,2.0896,2.0889,2.0881,2.0853,2.0849,2.0815,2.0813,2.0768,2.0772,2.0774,2.0774,2.0746,2.0748,2.0659,2.0646,2.0725,2.0724,2.0724,0,2.1009,2.0986,2.097,2.0955,2.0946,2.0922,2.0907,2.0908,2.0892,2.0871,2.0852,2.0825,2.0803,2.0758,2.0748,2.0723,2.0725,2.0695,2.0721,2.072,2.0722,2.0723,2.072,2.069,2.0689,2.0688,2.0687,0,2.0941,2.0941,2.092,2.0899,2.0881,2.0864,2.0847,2.0834,2.0833,2.0814,2.0786,2.077,2.0737,2.0709,2.0684,2.0674,2.0679,2.068,2.0672,2.067,2.0672,2.0669,2.0759,2.0681,2.0682,2.0682,2.0683,2.0683,2.0891,2.0871,2.0856,2.0832,2.0821,2.0805,2.0785,2.0778,2.0755,2.0729,2.0731,2.07,2.0683,2.065,2.0638,2.0613,2.0622,2.061,2.0607,2.0604,2.0601,2.0677,2.0608,2.0608,2.0608,2.0609,2.0609,0,2.0822,2.0814,2.0792,2.077,2.075,2.076,2.0743,2.0725,2.0699,2.0683,2.0662,2.063,2.0604,2.0592,2.0566,2.0548,2.055,2.0541,2.0541,2.0538,2.0595,2.0604,2.054,2.054,2.054,2.054,2.054,2.054,2.0784,2.0749,2.0748,2.0707,2.0698,2.0669,2.0658,2.0643,2.0631,2.0595,2.0574,2.0567,2.0553,2.0526,2.0501,2.0499,2.0488,2.0477,2.0475,2.0528,2.0535,2.0541,2.0549,2.0475,2.0475,2.0421,2.0421,2.042]}]]